Wind_Speed
37 32 30 20 18 36 47 47 50 43 46 43 48 54 54 44 47 46 40 42 43 50 53 56 64 62 63 67 68 73 74 74 72 75 79 81 86 83 86 91 91 89 90
38 26 18 24 14 28 33 43 36 42 42 47 45 50 52 54 55 56 57 57 57 60 65 57 60 66 67 66 67 68 75 78 80 81 83 88 92 95 94 93 95 97 98
52 48 26 24 16 15 22 28 23 39 42 41 46 49 52 55 58 60 61 63 61 63 65 67 68 66 69 71 70 71 75 79 83 86 90 93 92 90 88 87 84 82 79
36 34 39 33 33 27 22 26 29 33 35 37 43 46 51 55 56 63 67 67 68 72 77 79 78 75 78 78 74 74 77 79 78 76 76 75 76 75 75 77 77 78 79
34 25 32 34 30 33 30 32 34 36 41 45 47 51 56 59 59 58 61 65 68 71 75 72 71 71 67 65 65 66 66 68 68 70 72 75 77 79 81 83 85 88 89
34 28 34 37 36 37 36 39 41 45 46 44 44 47 52 56 59 60 59 58 59 62 62 62 60 61 61 63 65 69 71 73 77 80 82 83 86 89 91 93 94 94 93
32 34 36 39 40 39 40 40 42 44 45 49 52 54 53 52 52 52 53 53 54 54 57 61 63 68 68 70 73 75 78 80 83 85 87 89 90 92 93 95 97 99 100
32 36 37 39 41 41 36 41 41 40 41 42 42 41 41 45 47 50 52 54 56 58 60 63 66 68 71 73 76 76 78 80 82 84 87 89 91 94 96 98 100 101 101
30 28 30 32 35 39 39 36 35 34 35 37 37 39 44 45 48 51 55 57 60 61 61 63 64 67 70 73 76 78 80 82 84 87 89 91 94 97 100 102 104 106 107
21 24 24 25 27 28 28 29 30 32 34 36 39 42 45 47 48 50 52 54 56 60 66 70 74 78 81 85 86 87 87 87 91 92 93 96 99 101 104 107 111 113 117
15 15 17 20 23 26 27 28 31 34 37 38 40 41 42 44 46 47 50 54 59 63 67 72 78 83 85 90 95 97 97 97 98 100 100 102 104 107 110 113 117 121 123
13 19 20 22 24 27 30 33 34 34 35 38 41 42 42 43 53 55 61 65 68 71 75 80 83 86 90 92 97 102 103 102 102 103 105 107 110 113 117 121 124 126 129
17 20 23 25 26 27 29 32 35 37 36 37 41 46 50 53 58 61 66 69 73 77 83 89 94 97 100 102 104 106 106 107 110 113 115 117 119 120 120 119 113 112 110
20 20 21 24 27 28 29 28 31 35 40 42 45 50 54 58 62 68 74 78 83 87 90 94 98 102 103 103 102 105 109 113 114 113 107 100 98 97 96 99 101 102 99
18 17 19 20 23 27 30 33 36 40 44 48 52 57 61 67 70 74 79 84 87 92 97 100 102 102 104 106 109 106 96 86 82 84 87 89 90 91 93 95 95 92 87
15 18 20 23 25 28 33 37 41 46 51 56 61 64 68 72 76 80 86 91 96 100 103 106 106 109 111 108 93 83 81 82 86 90 92 92 92 93 92 88 80 74 68
19 21 24 27 32 36 41 47 52 56 59 62 66 70 74 78 84 89 95 98 101 103 105 105 109 111 102 87 83 83 84 87 88 89 91 93 93 88 76 67 60 55 48
24 28 32 37 42 46 49 53 56 59 63 67 71 75 80 86 90 95 98 102 102 103 103 106 106 91 82 80 82 87 89 89 89 92 90 83 71 62 53 46 41 37 34
35 39 42 44 47 50 53 57 60 62 65 69 74 79 83 87 92 96 99 101 101 103 104 100 82 79 80 81 88 92 91 92 88 77 66 57 49 41 34 31 29 29 30
41 44 46 48 51 54 58 61 63 66 69 72 77 81 84 88 91 95 98 99 101 103 95 82 77 81 82 86 91 90 91 77 65 56 46 38 31 27 24 24 26 26 26
42 43 46 49 53 56 60 63 66 68 72 76 81 85 88 90 93 97 97 98 101 92 84 81 82 83 85 88 89 85 68 58 48 37 28 24 21 20 23 26 25 24 24
46 47 49 52 55 58 61 64 67 71 75 78 81 84 87 91 94 95 97 99 89 82 82 81 83 84 84 85 79 63 52 42 32 25 22 20 19 23 24 23 23 25 25
50 51 53 55 57 60 63 66 70 73 76 78 82 85 88 90 92 95 97 89 83 81 82 82 81 80 84 76 60 47 37 28 21 19 19 19 22 21 19 20 22 24 25
52 54 55 58 60 62 66 69 72 74 76 78 82 85 87 89 93 94 88 84 84 84 80 78 76 82 74 58 46 34 25 20 18 17 17 21 19 18 20 23 26 27 28
54 56 58 60 62 64 66 69 71 73 75 78 81 83 86 89 91 85 83 86 83 77 75 74 81 73 58 44 31 23 19 16 17 19 20 18 19 20 23 26 27 28 29
57 59 60 62 63 65 66 69 71 72 74 78 80 82 85 87 82 81 84 82 77 73 74 78 77 60 45 30 21 17 16 16 18 18 18 18 20 23 25 25 27 29 29
Wind_Direction
206 216 221 230 222 229 245 250 253 257 254 258 266 265 273 272 270 279 277 281 287 280 286 280 276 287 290 291 294 289 282 284 283 282 280 281 285 284 280 280 285 284 283
206 204 242 232 238 227 231 238 251 250 258 263 273 274 280 283 283 282 280 275 278 281 286 288 284 292 295 292 293 294 286 282 285 284 284 284 283 281 280 282 283 282 282
219 242 245 239 231 229 241 241 254 256 261 266 269 279 280 280 282 284 283 280 277 277 286 294 293 289 290 293 291 290 289 287 283 284 283 284 283 282 282 282 282 280 279
233 261 264 258 268 259 272 284 283 279 278 278 281 284 283 281 282 281 280 282 282 282 286 289 294 294 293 292 288 285 284 283 284 284 282 281 282 281 281 280 279 279 279
238 233 243 257 271 287 281 282 280 281 284 284 284 284 285 284 290 290 289 287 285 286 287 292 293 291 290 288 287 286 285 284 283 283 282 282 281 280 281 281 280 279 279
254 259 261 261 291 288 287 283 287 288 288 288 287 288 288 290 293 293 292 293 293 290 291 293 292 292 291 289 288 287 286 286 285 284 285 288 286 285 285 284 282 282 279
248 257 275 282 286 288 283 283 284 285 283 282 281 283 289 293 293 294 295 294 294 295 293 297 297 301 299 296 295 293 292 292 292 292 290 289 288 287 286 286 285 284 284
259 264 271 275 275 276 284 295 294 293 292 291 293 295 295 295 296 298 299 300 302 302 301 301 300 299 299 298 298 298 298 297 296 295 295 294 293 291 290 289 288 287 286
258 258 270 273 280 289 294 292 294 294 295 295 297 299 301 301 304 304 305 306 305 307 309 308 309 309 308 306 305 304 303 301 301 300 299 298 297 295 294 293 291 290 288
271 271 280 280 284 289 295 296 297 301 304 305 306 307 307 308 310 312 313 314 314 314 315 314 314 313 312 311 308 306 304 304 303 302 300 298 295 293 292 290 289 287 286
285 294 296 295 291 294 300 305 308 309 309 311 313 315 317 317 320 322 322 322 322 320 316 314 313 312 311 310 308 305 301 299 299 297 295 293 292 291 290 290 290 290 289
276 296 300 307 311 312 313 314 316 318 320 320 321 324 325 326 327 325 324 323 321 319 318 318 316 313 309 307 306 304 302 300 297 295 294 293 292 291 290 290 291 293 294
316 316 318 320 322 324 324 324 325 329 334 335 334 331 329 327 325 323 321 319 316 316 315 315 315 315 314 311 307 304 302 300 299 299 298 298 298 298 297 296 296 296 296
337 339 337 335 334 337 341 344 343 337 333 330 328 327 325 322 319 317 315 314 314 314 313 313 312 313 311 309 306 304 302 301 300 300 301 300 299 299 300 299 298 298 298
353 358 1 359 355 348 346 342 337 332 328 325 321 319 317 316 314 313 312 313 312 312 313 313 313 313 311 310 309 309 308 306 305 304 303 303 303 302 301 301 300 299 298
9 354 354 351 344 337 331 328 324 322 321 320 320 319 319 319 318 317 317 317 317 317 316 316 317 317 316 316 315 313 311 309 307 306 307 307 306 305 305 304 303 302 302
348 341 336 330 327 324 322 322 322 321 320 320 319 319 319 320 319 320 320 321 320 319 320 321 320 318 317 316 314 313 312 312 311 309 309 309 308 309 308 308 307 307 309
325 322 319 319 321 323 322 322 321 320 321 321 321 321 320 320 320 320 321 321 320 320 321 320 319 318 316 316 318 319 317 315 314 312 311 311 312 311 312 314 316 319 320
324 325 324 322 322 323 322 321 321 320 321 322 322 322 321 319 319 320 321 321 321 322 322 321 319 318 318 320 321 321 319 318 315 315 316 315 317 320 324 328 329 328 334
322 323 323 323 323 322 321 321 321 321 321 321 321 320 319 319 320 321 321 322 323 323 324 324 322 322 323 323 323 322 321 320 320 321 323 325 330 336 338 338 342 346 344
319 318 318 319 319 319 319 318 319 320 321 321 321 321 320 321 323 324 325 325 326 326 327 326 325 325 325 326 325 325 325 325 327 331 335 343 352 344 353 355 354 354 355
317 317 316 317 317 318 319 319 320 320 320 321 322 322 324 325 326 326 326 327 328 329 327 326 326 327 328 328 329 329 330 333 339 347 357 0 360 5 359 356 357 0 3
316 315 314 315 317 318 318 320 321 321 322 323 323 324 326 327 327 328 329 329 330 328 327 329 329 331 331 331 333 334 337 346 357 7 3 11 12 5 4 5 11 16 27
314 315 314 316 318 318 319 320 321 322 323 323 324 326 328 328 329 330 331 331 329 330 331 333 334 334 334 336 336 342 355 8 13 14 20 20 14 14 12 18 27 36 44
313 313 314 315 317 318 320 321 322 323 323 324 326 328 329 330 331 333 332 332 335 336 337 337 337 337 338 340 345 0 15 22 27 27 26 26 25 23 27 35 45 53 55
311 313 314 315 318 320 321 322 323 324 324 325 328 330 331 333 334 335 336 337 338 338 339 339 340 341 343 348 4 17 27 31 32 31 34 32 30 31 40 53 63 64 60
Height
5636 5639 5644 5646 5644 5649 5653 5656 5656 5659 5659 5659 5659 5658 5657 5656 5655 5653 5651 5649 5646 5643 5638 5634 5631 5626 5620 5615 5608 5603 5597 5592 5589 5585 5577 5571 5566 5561 5556 5552 5546 5542 5538
5632 5636 5637 5639 5639 5640 5643 5649 5648 5649 5652 5651 5651 5650 5647 5645 5644 5642 5641 5638 5632 5628 5624 5620 5615 5609 5604 5598 5592 5586 5580 5573 5568 5564 5557 5550 5544 5539 5535 5530 5524 5518 5512
5628 5627 5633 5635 5636 5636 5639 5642 5639 5644 5645 5646 5644 5642 5638 5635 5633 5630 5627 5624 5620 5616 5610 5606 5600 5594 5587 5579 5573 5567 5560 5554 5546 5540 5536 5528 5522 5516 5512 5506 5501 5495 5490
5624 5625 5628 5631 5632 5632 5633 5634 5635 5635 5635 5634 5633 5630 5627 5624 5621 5618 5614 5610 5605 5600 5594 5588 5581 5574 5567 5560 5553 5546 5538 5531 5524 5517 5511 5505 5499 5493 5486 5482 5481 5472 5468
5625 5621 5622 5627 5629 5628 5628 5628 5628 5628 5626 5624 5623 5621 5619 5614 5610 5605 5600 5596 5591 5586 5579 5572 5564 5557 5550 5542 5535 5527 5520 5514 5507 5499 5493 5486 5479 5473 5467 5460 5455 5450 5445
5618 5620 5623 5623 5623 5622 5621 5622 5620 5619 5617 5616 5614 5611 5608 5603 5598 5594 5588 5583 5576 5570 5563 5557 5549 5542 5533 5525 5517 5510 5502 5496 5490 5482 5473 5466 5457 5449 5442 5433 5427 5422 5418
5619 5622 5621 5618 5619 5618 5617 5616 5614 5612 5610 5607 5604 5601 5596 5591 5586 5581 5574 5568 5562 5555 5549 5542 5534 5527 5518 5510 5501 5491 5482 5472 5464 5457 5449 5439 5431 5421 5413 5404 5395 5388 5381
5617 5617 5617 5615 5614 5613 5611 5608 5606 5602 5598 5594 5591 5587 5583 5578 5573 5568 5562 5556 5549 5542 5536 5528 5519 5511 5503 5494 5484 5474 5463 5453 5442 5432 5422 5412 5401 5391 5379 5371 5361 5355 5350
5614 5613 5612 5611 5609 5606 5604 5601 5597 5593 5589 5586 5582 5578 5574 5569 5564 5558 5552 5544 5537 5529 5521 5511 5503 5493 5484 5476 5465 5454 5443 5432 5420 5408 5396 5385 5375 5361 5348 5338 5327 5317 5314
5609 5609 5606 5605 5602 5599 5596 5593 5589 5586 5583 5579 5575 5570 5566 5560 5554 5547 5540 5532 5525 5515 5504 5493 5483 5473 5462 5451 5441 5430 5420 5409 5397 5388 5375 5362 5349 5336 5321 5305 5293 5283 5271
5601 5600 5598 5597 5595 5593 5590 5586 5583 5579 5576 5571 5566 5561 5555 5550 5542 5534 5526 5517 5507 5498 5489 5478 5466 5454 5442 5430 5418 5405 5393 5382 5370 5357 5344 5331 5317 5302 5287 5273 5257 5241 5232
5598 5596 5594 5591 5589 5587 5583 5579 5576 5572 5567 5562 5557 5551 5544 5537 5530 5521 5512 5502 5493 5482 5473 5462 5450 5438 5426 5412 5398 5382 5367 5353 5339 5326 5312 5298 5285 5270 5254 5237 5221 5207 5189
5596 5594 5592 5589 5586 5582 5579 5576 5571 5565 5560 5554 5548 5541 5534 5527 5519 5509 5500 5489 5479 5467 5452 5438 5425 5410 5396 5382 5365 5348 5331 5317 5302 5288 5274 5260 5243 5228 5213 5198 5184 5169 5161
5593 5592 5590 5587 5584 5579 5574 5569 5565 5561 5556 5550 5543 5536 5527 5519 5509 5498 5487 5475 5463 5450 5435 5419 5404 5388 5371 5352 5335 5316 5299 5282 5267 5252 5239 5224 5211 5196 5180 5163 5153 5141 5131
5594 5592 5588 5585 5581 5577 5572 5568 5562 5556 5549 5542 5534 5526 5517 5507 5495 5483 5469 5455 5441 5427 5411 5394 5377 5360 5342 5323 5304 5283 5263 5248 5236 5222 5209 5198 5185 5169 5154 5136 5121 5111 5098
5593 5590 5586 5582 5577 5572 5567 5562 5555 5548 5540 5531 5521 5511 5500 5487 5474 5460 5446 5430 5415 5398 5381 5362 5342 5322 5302 5283 5267 5253 5237 5224 5210 5195 5181 5165 5152 5137 5123 5108 5093 5082 5073
5591 5587 5582 5577 5572 5566 5559 5551 5543 5535 5527 5517 5506 5493 5481 5469 5456 5440 5424 5408 5390 5372 5351 5331 5312 5293 5275 5257 5243 5229 5215 5198 5182 5166 5151 5136 5122 5107 5093 5083 5074 5064 5058
5586 5581 5576 5570 5563 5556 5549 5541 5532 5523 5513 5501 5489 5477 5462 5448 5433 5419 5405 5388 5371 5352 5332 5311 5291 5270 5254 5239 5223 5207 5190 5173 5157 5140 5125 5110 5097 5087 5079 5069 5061 5055 5050
5578 5572 5567 5560 5553 5545 5537 5528 5518 5509 5500 5489 5475 5461 5448 5432 5416 5401 5384 5366 5348 5329 5310 5289 5270 5254 5238 5221 5203 5185 5166 5148 5131 5117 5105 5094 5084 5077 5069 5062 5056 5050 5044
5569 5563 5557 5550 5542 5534 5526 5517 5507 5497 5486 5474 5461 5449 5435 5419 5404 5387 5367 5347 5327 5307 5287 5268 5251 5235 5218 5201 5182 5164 5144 5126 5112 5102 5093 5085 5077 5071 5065 5060 5055 5049 5043
5560 5553 5547 5540 5532 5523 5514 5504 5494 5483 5471 5458 5444 5429 5415 5401 5384 5365 5346 5326 5306 5285 5267 5250 5234 5217 5200 5182 5162 5143 5126 5114 5103 5096 5088 5082 5076 5071 5065 5060 5055 5050 5044
5549 5543 5536 5528 5519 5510 5501 5491 5480 5468 5457 5443 5428 5412 5397 5381 5363 5345 5327 5307 5287 5269 5251 5235 5217 5200 5182 5165 5146 5129 5117 5108 5100 5093 5088 5082 5077 5072 5068 5063 5058 5053 5047
5539 5531 5523 5515 5506 5496 5486 5476 5465 5452 5439 5425 5411 5396 5381 5364 5347 5328 5309 5289 5272 5255 5237 5220 5202 5184 5166 5148 5134 5123 5113 5106 5100 5094 5090 5085 5081 5077 5072 5067 5063 5057 5051
5527 5519 5511 5503 5493 5483 5472 5461 5450 5438 5425 5411 5396 5382 5366 5348 5330 5312 5292 5275 5257 5239 5222 5206 5189 5172 5153 5139 5127 5119 5113 5107 5102 5098 5094 5089 5085 5081 5076 5072 5066 5061 5056
5515 5506 5498 5489 5480 5469 5458 5447 5436 5424 5410 5396 5383 5368 5351 5334 5316 5297 5279 5261 5243 5226 5210 5194 5178 5160 5145 5134 5125 5119 5115 5109 5105 5102 5098 5094 5089 5085 5082 5077 5072 5068 5064
5500 5492 5484 5475 5466 5456 5445 5434 5422 5410 5397 5383 5369 5354 5338 5320 5301 5284 5267 5250 5233 5216 5201 5184 5167 5152 5141 5132 5126 5122 5118 5113 5110 5107 5104 5100 5095 5092 5088 5084 5080 5076 5073